Hourly Data Report for June 27, 2022

MIRAMICHI RCS
NEW BRUNSWICK
Current Station Operator: ECCC - MSC

47°00'34.000" N
65°27'54.000" W
33.00 m
8100989
71744
ACQ

Download Data

Hourly Data (June 2022)
Hourly Data Report for June 27, 2022
TIME
LST
Temp Definition
°C
Dew Point Definition
°C
Rel Hum Definition
%
Precip. Amount Definition
mm

Wind Dir Definition
10's deg

Wind Spd Definition
km/h
Visibility Definition
km
Stn Press Definition
kPa
Hmdx Definition


Wind Chill Definition


Weather Definition


00:00 20.7 16.3 76 0.0 21 16   101.06 26   LegendNANA
01:00 20.0 16.0 78 0.0 21 17   101.05 25   LegendNANA
02:00 19.1 15.3 79 0.0 21 13   101.02     LegendNANA
03:00 18.3 14.6 79 0.0 20 14   100.97     LegendNANA
04:00 17.5 14.3 82 0.0 21 9   100.90     LegendNANA
05:00 17.0 14.3 84 0.0 20 8   100.88     LegendNANA
06:00 17.6 14.6 83 0.0 20 9   100.84     LegendNANA
07:00 19.3 15.1 76 0.0 21 16   100.78     LegendNANA
08:00 20.9 15.1 70 0.0 20 22   100.75 25   LegendNANA
09:00 23.2 16.4 66 0.0 20 23   100.70 28   LegendNANA
10:00 25.2 17.1 61 0.0 21 26   100.63 31   LegendNANA
11:00 26.6 16.2 53 0.0 20 34   100.60 31   LegendNANA
12:00 27.2 14.2 45 0.0 21 35   100.55 31   LegendNANA
13:00 28.7 13.6 39 0.0 21 39   100.46 32   LegendNANA
14:00 28.5 13.9 41 0.0 20 38   100.36 32   LegendNANA
15:00 27.3 15.2 47 0.0 20 28   100.29 31   LegendNANA
16:00 25.0 14.5 52 0.0 19 38   100.33 29   LegendNANA
17:00 20.2 18.9 92 1.2 20 24   100.36 27   LegendNANA
18:00 20.1 18.3 89 0.0 21 30   100.35 26   LegendNANA
19:00 19.5 17.8 90 0.0 21 27   100.39     LegendNANA
20:00 19.3 17.6 90 0.0 21 22   100.37     LegendNANA
21:00 18.9 17.6 92 0.0 22 22   100.48     LegendNANA
22:00 18.9 17.6 92 0.0 22 22   100.51     LegendNANA
23:00 18.8 17.5 92 0.0 22 16   100.52     LegendNANA

Notes on Data Quality.

Legend

  • E = Estimated
  • M = Missing
  • NA = Not Available*
  • [empty] = Indicates an unobserved value
Date modified: